Hourly Data Report for October 26, 2015

All times are specified in Local Standard Time (LST). Add 1 hour to adjust for Daylight Saving Time where and when it is observed.

KUGLUKTUK A
NUNAVUT

67°49'00.000" N
115°08'38.000" W
22.60 m
2300903
71938
YCO

Download Data

Hourly Data (October 2015)
Hourly Data Report for October 26, 2015
Temp Definition
°C
Dew Point Temp Definition
°C
Rel Hum Definition
%
Wind Dir Definition
10's deg

Wind Spd Definition
km/h
Visibility Definition
km
Stn Press Definition
kPa
Hmdx Definition


Wind Chill Definition


Weather Definition


TIME
00:00 Legend Double Dagger -19.4 -21.1 87 25 5 24.1 101.84   -24 LegendNANA
01:00 Legend Double Dagger -17.4 -19.2 86 19 3 24.1 101.84   -20 LegendNANA
02:00 Legend Double Dagger -18.5 -20.0 88 14 5 1.6 101.77   -23 Fog
03:00 Legend Double Dagger -16.6 -18.3 87 15 10 1.2 101.73   -23 Fog
04:00 Legend Double Dagger -12.5 -14.2 87 22 6 8.1 101.68   -16 Fog
05:00 Legend Double Dagger -11.3 -12.8 89 21 9 8.1 101.64   -16 Fog
06:00 Legend Double Dagger -10.4 -11.6 91 12 14 9.7 101.58   -17 Fog
07:00 Legend Double Dagger -9.4 -10.6 91 4 3 12.9 101.55   -11 LegendNANA
08:00 Legend Double Dagger -8.4 -9.3 93 17 5 24.1 101.51   -11 Cloudy
09:00 Legend Double Dagger -7.2 -8.1 93 29 9 24.1 101.49   -12 LegendNANA
10:00 Legend Double Dagger -6.8 -7.8 93 29 5 24.1 101.45   -9 LegendNANA
11:00 Legend Double Dagger -5.5 -6.9 90 36 2 24.1 101.41   -6 Cloudy
12:00 Legend Double Dagger -5.0 -6.5 89 36 2 24.1 101.36   -6 LegendNANA
13:00 Legend Double Dagger -3.1 -5.3 85 20 17 24.1 101.29   -9 LegendNANA
14:00 Legend Double Dagger -3.0 -4.6 89 22 21 9.7 101.29   -9 Freezing Drizzle,Fog
15:00 Legend Double Dagger -3.0 -5.0 86 21 19 24.1 101.24   -9 LegendNANA
16:00 Legend Double Dagger -2.9 -4.8 87 22 18 19.3 101.23   -9 LegendNANA
17:00 Legend Double Dagger -2.8 -4.7 87 22 13 24.1 101.21   -7 Cloudy
18:00 Legend Double Dagger -2.7 -4.4 88 23 11 24.1 101.21   -7 LegendNANA
19:00 Legend Double Dagger -4.0 -5.0 93 30 8 24.1 101.23   -7 LegendNANA
20:00 Legend Double Dagger -4.4 -5.7 91 30 17 12.9 101.26   -10 Snow
21:00 Legend Double Dagger -4.9 -5.7 94 28 10 9.7 101.29   -9 Snow
22:00 Legend Double Dagger -5.3 -6.1 94 27 13 6.4 101.34   -10 Snow
23:00 Legend Double Dagger -5.5 -6.5 93 26 16 8.1 101.38   -11 Snow

Notes on Data Quality.

Legend

  • E = Estimated
  • M = Missing
  • NA = Not Available
  • ‡ = Partner data that is not subject to review by the National Climate Archives
Date modified: